Вернуться в каталог

RISAT-2BR2

АктивенВоенныеVLEO
NORAD 46905·PAYLOAD·🇮🇳 India

Запущен Nov 7, 2020 с Satish Dhawan Space Centre

Loading…

Ближайшие Пролёты (ближайшие 24 часа)

TLE

СвежийSource: Space-Track

Эпоха: Sep 14, 2026, 19:18 UTC

1 46905U 20081A   26257.80421081  .00000196  00000-0  21246-4 0  9996
2 46905  36.8983  52.3700 0013905 163.7105 196.4085 15.00892229320940

Отслеживайте RISAT-2BR2 в реальном времени с AllMySat

Download on the App Store